FENGYUN 1C DEB

Satellite information

Favourite Embed

Satellite Type and Status

DEBRISIN ORBIT

Key statistics

Satellite FENGYUN 1C DEB at a glance.

Uptime

9496

Days in orbit

Revolutions

≈ 14.2

Per day

Orbit

SSO

Sun Synchronous Orbit

Inclination

98.4

Latest

Satellite identification and parameters

Extended collection of information and parameters for FENGYUN 1C DEB.

Object identification

Identified? True

Debris? True

Object name: FENGYUN 1C DEB

International designator: 1999-025AEX

Object number (NORAD): 30436

Object ID (CCSDS): 30436

Country: PEOPLES REPUBLIC OF CHINA (PRC)

Current information (Y/N): Y

RCS size: SMALL

Orbital parameters

Period: 101.426 minutes

Inclination: 98.4373 deg

SMA: 7204.298 km

Apoapsis: 902.254 km

Periapsis: 750.072 km

RAAN: 31.2361 deg

Eccentricy: 0.0105619

Argument of periapsis: 52.5769 deg

Mean anomaly: 66.7906 deg

Mean motion: 14.19761154 rev/day

Mean motion (dot): 0.0000657 rev/day2

B* drag term: 0.0029504 1/REarth

Two-line elements (TLE)

Creation date: May 8, 2025, 3:01 a.m.

Reference frame: TEME

Reference center: EARTH

Epoch: May 7, 2025, 6:09 a.m. UTC

TLE line 0: 0 FENGYUN 1C DEB

TLE line 1: 1 30436U 99025AEX 25127.25683883 .00006570 00000-0 29504-2 0 9991

TLE line 2: 2 30436 98.4373 31.2361 0105619 52.5769 66.7906 14.19761154933204

Live tracking on map

Real-time ground track for satellite FENGYUN 1C DEB.

In-orbit conjunctions

A list of the most updated potential collisions computed for object FENGYUN 1C DEB.

Target Orbit TCA Probability of collision Miss distance Type
NOAA 16 DEB SSO 2024-11-09 17:59:32 0.0005950014 430.0 (m) DEBRIS
CZ-6A DEB LEO 2024-10-31 15:36:46 0.0001623224 988.0 (m) DEBRIS
FENGYUN 1C DEB SSO 2024-09-27 14:35:36 0.000122257 169.0 (m) DEBRIS
CZ-6A DEB LEO 2024-09-21 09:03:29 0.0001792827 198.0 (m) DEBRIS
CZ-6A DEB LEO 2024-09-19 21:22:33 0.0001204839 303.0 (m) DEBRIS

Associated space launch

Chinese polar orbiting meteorological satellite

FENGYUN 1C DEB was lifted into orbit during the mission ‘Long March 4B | Feng Yun 1C’, on board a Long March 4B space rocket.

The launch took place on May 10, 1999, 1:33 a.m. from Launch Complex 7.

For more information about the launch, click the button.

Launch to space Long March 4B | Feng Yun 1C
Long March 4B | Feng Yun 1C

Agency: N/A

Status: Launch Successful

Launch date: May 10, 1999, 1:33 a.m. UTC

Rocket: Long March 4B

Launch pad: Launch Complex 7

Location: Taiyuan Satellite Launch Center, People's Republic of China

...

Latest news about this satellite

There are no fresh news available about this satellite. Check back as we update our databases every day.


Newsletter sign-up

Weekly statistics, charts and insights to help you stay on top of the space industry.